Portada
METAR-TAF:

METAR-TAF

Aeroports :

NWS Office

Pohnpei, Micronèsia

latitud: 06-58N, longitud: 158-13E, altitud: 39 m

Observació

L'informe es va fer fa 1 hora i 3 minuts, a les 16:53 UTC
Vent 3 kt del Est/Nord-Est
Temperatura 27°C
Humitat 84%
Pressió 1012 hPa
Visibilitat: 24.1 km
Núvols disperses a una alçada de 1800 ft
Cel ennuvolat a una alçada de 30000 ft

METAR: PTTP 171653Z 06003KT 15SM SCT018 BKN300 27/24 A2988 RMK SLP117 T02710239

Hora: 04:56 (17:56 UTC)


TAF: manca

Observacions i pronòstics meteorològics de més de 4000 aeroports (METAR i TAF).

Les estacions disponibles són els punts grocs i vermells al mapa.

Posi el ratolí al punt desitjat per veure el nom de l'estació.

Feu clic per veure les observacions i els pronòstics meteorològics.

Per canviar el mapa: feu clic els botons verds amb una creu de color negre per apropar; al botó verd amb un guió per allunyar la imatge; o en les fletxes verdes per a mapes adjacents.


METAR-TAF: